Flag Weather past 2 weeks in Ingolstadt, Bavaria, Germany

Now
37 °F

Chilly.


Feels Like: 31 °F
Forecast: 32 / 41 °F
Wind: 9 mph from East

Location: Ingolstadt Airport

Current Time: Nov 26, 2014 at 1:53:27 AM

Latest Report: Nov 26, 2014 at 12:20 AM


Visibility: N/A

Pressure: 30.15 "Hg

Humidity: 87%

Dew point: 34 °F

Location of IngolstadtLocation

Historic Weather in Ingolstadt — Graph

°F

Ingolstadt temperature yesterday

Maximum temperature yesterday: 45 °F (at 10:47 AM)
Minimum temperature yesterday: 39 °F (at 8:20 PM)
Average temperature yesterday: 43 °F

Past Weeks' High & Low Weather Summary

 TemperatureHumidityPressure
High52 °F (Nov 16, 1:20 PM)100% (Nov 11, 2:20 AM)30.30 "Hg (Nov 11, 2:20 AM)
Low32 °F (Nov 23, 5:20 AM)71% (Nov 16, 12:20 PM)29.47 "Hg (Nov 16, 12:20 AM)
Average43 °F93%29.93 "Hg
* Reported Nov 11 12:20 AM — Nov 26 12:20 AM, Ingolstadt, Weather by CustomWeather, © 2014

Note: Actual official high and low records may vary slightly from our data, if they occured in-between our weather recording intervals... More about our weather records

Advertising

Ingolstadt weather history for previous 24 hours

 ConditionsComfort  
Time TempWeatherWind HumidityBarometerVisibility
12:20 AM
Nov 26
37 °FChilly.9 mph87%30.15 "HgN/A
11:20 PM
Nov 25
39 °FChilly.9 mph81%30.15 "HgN/A
10:20 PM39 °FChilly.12 mph81%30.15 "HgN/A
9:20 PM39 °FChilly.10 mph87%30.18 "HgN/A
8:20 PM39 °FPassing clouds.13 mph87%30.15 "HgN/A
7:20 PM41 °FPassing clouds.17 mph81%30.18 "HgN/A
7:00 PM41 °FPassing clouds.12 mph81%30.15 "HgN/A
6:20 PM43 °FPassing clouds.10 mph87%30.15 "HgN/A
5:20 PM43 °FPassing clouds.9 mph87%30.18 "HgN/A
4:20 PM43 °FPartly sunny.12 mph87%30.18 "HgN/A
3:20 PM45 °FPartly sunny.10 mph81%30.18 "HgN/A
2:20 PM45 °FPartly sunny.13 mph81%30.18 "HgN/A
1:20 PM45 °FPartly sunny.9 mph87%30.21 "HgN/A
12:20 PM45 °FPartly sunny.9 mph87%30.21 "Hg5 mi
11:20 AM45 °FBroken clouds.10 mph87%30.24 "Hg4 mi
10:47 AM45 °FFog.9 mph87%30.24 "Hg3 mi
10:20 AM43 °FFog.8 mph93%30.24 "Hg2 mi
9:20 AM43 °FFog.6 mph93%30.24 "Hg2 mi
8:20 AM43 °FFog.7 mph93%30.24 "Hg2 mi
7:20 AM43 °FFog.9 mph93%30.24 "Hg2 mi
6:20 AM43 °FFog.8 mph93%30.27 "Hg2 mi
5:20 AM43 °FFog.8 mph93%30.27 "Hg2 mi
4:20 AM43 °FQuite cool.7 mph93%30.27 "HgN/A
3:20 AM43 °FQuite cool.6 mph93%30.27 "HgN/A
2:20 AM43 °FQuite cool.6 mph93%30.27 "HgN/A
1:20 AM43 °FQuite cool.1 mph93%30.27 "HgN/A
Weather by CustomWeather, © 2014

See weather overviewHow to use our weather pages